This is the latest recevied weather packets stored in our database for station/object EA3EH-1. If no packets are shown the sender has not sent any weather packets the latest 10 day(s).
| Time | Temp. | Humidity | Pressure | Rain* | Wind** | Luminosity | Snow |
|---|---|---|---|---|---|---|---|
| 1777222306 | 20° C | 34% | 1015 hPa | 0 mm | - | - | - |
| 1777222004 | 20° C | 33% | 1015 hPa | 0 mm | - | - | - |
| 1777220204 | 20° C | 31% | 1014 hPa | 0 mm | - | - | - |
| 1777219905 | 20° C | 32% | 1014 hPa | 0 mm | - | - | - |
| 1777219605 | 20° C | 32% | 1015 hPa | 0 mm | - | - | - |
| 1777219306 | 20° C | 32% | 1015 hPa | 0 mm | - | - | - |
| 1777218106 | 20.56° C | 32% | 1015 hPa | 0 mm | - | - | - |
| 1777217806 | 20.56° C | 32% | 1015 hPa | 0 mm | - | - | - |
| 1777217507 | 20.56° C | 32% | 1015 hPa | 0 mm | - | - | - |
| 1777216604 | 20.56° C | 32% | 1015 hPa | 0 mm | - | - | - |
| 1777216304 | 21.11° C | 31% | 1015 hPa | 0 mm | - | - | - |
| 1777216004 | 21.11° C | 31% | 1014 hPa | 0 mm | - | - | - |
| 1777215705 | 21.11° C | 30% | 1014 hPa | 0 mm | - | - | - |
| 1777215404 | 21.11° C | 30% | 1014 hPa | 0 mm | - | - | - |
| 1777213604 | 21.11° C | 25% | 1015 hPa | 0 mm | - | - | - |
| 1777213307 | 21.67° C | 24% | 1015 hPa | 0 mm | - | - | - |
| 1777213006 | 21.67° C | 24% | 1015 hPa | 0 mm | - | - | - |
| 1777212705 | 22.22° C | 24% | 1015 hPa | 0 mm | - | - | - |
| 1777212404 | 21.67° C | 24% | 1015 hPa | 0 mm | - | - | - |
| 1777212107 | 21.67° C | 24% | 1015 hPa | 0 mm | - | - | - |
| 1777211806 | 21.67° C | 24% | 1015 hPa | 0 mm | - | - | - |
| 1777211506 | 21.67° C | 24% | 1015 hPa | 0 mm | - | - | - |
| 1777210907 | 21.11° C | 24% | 1015 hPa | 0 mm | - | - | - |
| 1777210606 | 21.11° C | 23% | 1015 hPa | 0 mm | - | - | - |
| 1777209408 | 22.22° C | 19% | 1015 hPa | 0 mm | - | - | - |
* Rain latest hour (hover to see other rain measurements)
** Current wind speed in m/s (hover to see current wind gust speed)